Terminal Aerodrome Forecast
Issued by NWS Pueblo, CO

Home | Current Version | Previous Version | Text Only | Print | Product List | Glossary On
Versions: 1 2 3 4 5 6 7 8 9 10 11 12 13 14 15 16 17 18 19 20 21 22 23 24 25 26 27 28 29 30 31 32 33 34 35 36 37 38 39 40 41 42 43 44 45
000
FTUS45 KPUB 291439 AAD
TAFALS
TAF AMD
KALS 291439Z 2915/3012 VRB05KT 3SM BR SCT001
     FM291500 21006KT P6SM SCT010 SCT070
     FM292300 20008KT P6SM VCSH SCT020 BKN040
     FM300200 12012KT 5SM -SN BKN015=

USA.gov is the U.S. government's official web portal to all federal, state and local government web resources and services.